STARLINK-34146, 64098

Orbit data source: Space-Track

STARLINK-34146, 64098 is a payload satellite owned by SpaceX/Seattle (US) in LEO that was launched on Fri, 23 May 2025 UTC via an FALCON 9 launch vehicle from the Air Force Western Test Range (AFWTR). Payload-class satellites include a variety of spacecraft equipped with specific instruments for various scientific and technological missions. These include communications satellites like Starlink; space stations such as the ISS; scientific satellites like the Hubble; Earth observation satellites from companies like Planet Labs, Umbra, and HawkEye 360; GPS; miniature CubeSats for education and research; and military/defense satellites.

Loading next visibility...
Identifier
64098, 2025-110C
Orbit
LEO
Country
Flag of USUS
Related business
Manufacturer
SpaceX/Seattle
Mission
Operational Commercial Communications
Bus & Motor
STARLINK V2MO, Unknown motor
Mass
575 kg wet, ~530 kg dry
Launch date (UTC)
2025-05-23 (1 year ago)
Launch vehicle
FALCON 9
Launch site
Air Force Western Test Range (AFWTR)
Object type
Payload
Rocket body
Debris
Shape & HBR
Box + 2 Pan, 17.7 m
Radar Cross Section
36.964 m², Large (>1 m²)

Expand to show TLE details & history
Last TLE update: 1 day ago

TLE from 1 day ago
0 STARLINK-34146
1 64098U 25110C   26170.57423583  .00025225  00000-0  75512-3 0  9998
2 64098  53.1577 271.9531 0001048  80.1976 279.9145 15.34402821 61496
Epoch: 2026-06-19T13:46Z
TLE epoch observation values (Epoch: 2026-06-19T13:46:53.975Z)
Latitude
-0.00002°
Longitude
157.42693°
Altitude
463.473 km
Speed
7.636 km/s
True Right ascension
18h 07m 48s
True Declination
0° 00' 00"
Sunlit
Object was in full shadow at epoch
Visualization orbit readout
Latitude
Unknown
Longitude
Unknown
Altitude
Unknown
Speed
Unknown
Apparent Right ascension
Unknown
Apparent Declination
Unknown
Sunlit
N/A
Visualization observer readout
Local Sidereal Time
07:12:20
Azimuth
Unknown
Elevation
Unknown
Doppler factor
Unknown
Orbital elements
Apogee altitude
463.669 km
Perigee altitude
462.235 km
Semi-major axis
6,841.089 km
Eccentricity
0.0001
Inclination
53.1577°
RAAN
271.9531°
Arg. of periapsis
80.1976°
True anomaly
279.90267°
Mean anomaly
279.9145°
Eccentric anomaly
279.90858°
Mean motion
3.83579 °/min
Orbital period
93.85 mins
BSTAR
0.00075512
Loading maneuver chart data...
Computing Atmospheric mass density...
Loading historical data...
Loading historical data...
Loading historical data...
Loading historical data...
Loading historical data...
Loading historical data...
Loading historical data...

Documentation

Showing up to 5 results
|